Tracking 20376 objects as of 20-Feb-2020
HD Live streaming from Space Station
objects crossing your sky now
Track the group of recently launched Starlink satellites

NATO 3A

Track NATO 3A now!
NATO 3A is classified as:


NORAD ID: 8808
Int'l Code: 1976-035A
Perigee: 35,822.4 km
Apogee: 36,008.1 km
Inclination: 10.1 °
Period: 1,442.3 minutes
Semi major axis: 42286 km
RCS: 7.2313 m2 (large)
Launch date: April 22, 1976
Source: North Atlantic Treaty Organization (NATO)
Launch site: AIR FORCE EASTERN TEST RANGE (AFETR)
aabbcc
Your satellite tracking list
Your tracking list is empty




NASA's NSSDC Master Catalog

Two Line Element Set (TLE):
1  8808U 76035A   20050.83284446 +.00000126 +00000-0 +00000-0 0  9990
2  8808 010.0827 316.3203 0021960 277.4479 257.2733 00.99840041724210
Source of the keplerian elements: AFSPC